"Time","Temp","Dewpoint","Humidity","Pressure","Direction","Speed","Gust","Precip","PrecipRate"
"00:04:58","27.8","23.6","84","30.31","196","0","0","0.00","0.00"
"00:09:58","27.6","23.4","84","30.31","196","0","0","0.00","0.00"
"00:14:56","27.4","23.2","84","30.32","196","0","0","0.00","0.00"
"00:19:58","27.2","23.1","84.1","30.32","196","0","0","0.00","0.00"
"00:24:57","27.1","23.2","85","30.32","196","0","0","0.00","0.00"
"00:29:59","27","23.1","85","30.32","196","0","0","0.00","0.00"
"00:34:57","26.9","23.1","85.4","30.32","196","0","0","0.00","0.00"
"00:39:56","26.9","23.3","86","30.32","196","0","0","0.00","0.00"
"00:44:58","26.8","23.2","86","30.33","196","0","0","0.00","0.00"
"00:49:56","26.9","23.4","86.8","30.33","196","0","0","0.00","0.00"
"00:54:58","27","23.6","87","30.33","196","0","0","0.00","0.00"
"00:59:56","27","23.6","87","30.33","196","0","0","0.00","0.00"
"01:04:58","27","23.6","87","30.33","196","0","0","0.00","0.00"
"01:09:56","27","23.5","86.3","30.33","196","0","0","0.00","0.00"
"01:14:59","27","23.4","86","30.34","196","0","0","0.00","0.00"
"01:19:57","26.8","23.2","86","30.34","196","0","0","0.00","0.00"
"01:24:59","26.7","23.1","86","30.34","196","0","0","0.00","0.00"
"01:29:57","26.5","22.9","85.9","30.34","196","0","0","0.00","0.00"
"01:34:59","26.4","22.8","86","30.34","196","0","0","0.00","0.00"
"01:39:57","26.3","22.7","86","30.34","196","0","0","0.00","0.00"
"01:44:59","26.2","22.6","86","30.35","196","0","0","0.00","0.00"
"01:49:57","26.1","22.5","86","30.35","196","0","0","0.00","0.00"
"01:54:56","26","22.4","86","30.35","196","0","0","0.00","0.00"
"01:59:58","25.9","22.3","86","30.35","196","0","0","0.00","0.00"
"02:04:56","25.8","22.2","86","30.35","196","0","0","0.00","0.00"
"02:09:58","25.8","22.2","86","30.35","196","0","0","0.00","0.00"
"02:14:56","25.7","22.2","86.4","30.35","196","0","0","0.00","0.00"
"02:19:58","25.6","22","86.2","30.35","196","0","0","0.00","0.00"
"02:24:56","25.5","22.2","87","30.35","196","0","0","0.00","0.00"
"02:29:57","25.3","22","87","30.36","196","0","0","0.00","0.00"
"02:34:59","25.3","22.1","87.3","30.36","196","0","0","0.00","0.00"
"02:39:58","25.4","22.3","88","30.36","196","0","0","0.00","0.00"
"02:44:56","25.4","22.3","88","30.37","196","0","0","0.00","0.00"
"02:49:58","25.3","22.1","87.7","30.37","196","0","0","0.00","0.00"
"02:54:57","25.2","21.9","87","30.37","196","0","0","0.00","0.00"
"02:59:59","25.1","21.9","87.7","30.37","196","0","0","0.00","0.00"
"03:04:57","25","21.8","87.8","30.37","196","0","0","0.00","0.00"
"03:09:56","24.9","21.8","88","30.37","196","0","0","0.00","0.00"
"03:14:58","24.8","21.8","88","30.37","196","0","0","0.00","0.00"
"03:19:56","24.8","21.9","88.6","30.37","196","0","0","0.00","0.00"
"03:24:58","24.8","22","89","30.37","196","0","0","0.00","0.00"
"03:29:56","24.9","22.1","89","30.37","196","0","0","0.00","0.00"
"03:34:58","24.9","22.1","89","30.37","196","0","0","0.00","0.00"
"03:39:57","24.9","22.1","89","30.37","196","0","0","0.00","0.00"
"03:44:59","24.8","22","89","30.37","196","0","0","0.00","0.00"
"03:49:57","24.8","22","89","30.36","196","0","0","0.00","0.00"
"03:54:56","24.8","22","89","30.36","196","0","0","0.00","0.00"
"03:59:58","24.6","21.8","89","30.37","196","0","0","0.00","0.00"
"04:04:56","24.5","21.7","89","30.37","196","0","0","0.00","0.00"
"04:09:58","24.4","21.6","89","30.37","196","0","0","0.00","0.00"
"04:14:57","24.3","21.5","89","30.37","196","0","0","0.00","0.00"
"04:19:59","24.2","21.4","89","30.37","196","0","0","0.00","0.00"
"04:24:57","24.2","21.7","90","30.37","196","0","0","0.00","0.00"
"04:29:56","24.2","21.7","90","30.37","196","0","0","0.00","0.00"
"04:34:57","24.2","21.7","90","30.37","196","0","0","0.00","0.00"
"04:39:56","24.2","21.7","90","30.37","196","0","0","0.00","0.00"
"04:44:58","24.1","21.6","90","30.37","196","0","0","0.00","0.00"
"04:49:56","24","21.5","90","30.37","196","0","0","0.00","0.00"
"04:54:59","23.9","21.4","90","30.37","196","0","0","0.00","0.00"
"04:59:57","23.8","21.3","90","30.37","196","0","0","0.00","0.00"
"05:04:58","23.6","21.1","90","30.37","196","0","0","0.00","0.00"
"05:09:57","23.5","21","90","30.37","196","0","0","0.00","0.00"
"05:14:59","23.4","20.9","90","30.38","196","0","0","0.00","0.00"
"05:19:57","23.4","21","90.4","30.38","196","0","0","0.00","0.00"
"05:24:56","23.4","21.2","90.8","30.38","196","0","0","0.00","0.00"
"05:29:58","23.5","21.3","91","30.38","196","0","0","0.00","0.00"
"05:34:56","23.4","21","90.2","30.38","196","0","0","0.00","0.00"
"05:39:58","23.4","21.2","90.9","30.38","196","0","0","0.00","0.00"
"05:44:56","23.5","21.4","91.3","30.39","196","0","0","0.00","0.00"
"05:49:58","23.6","21.5","91.5","30.39","196","0","0","0.00","0.00"
"05:54:56","23.7","21.5","91","30.39","196","0","0","0.00","0.00"
"05:59:58","23.6","21.4","91","30.39","196","0","0","0.00","0.00"
"06:04:52","23.4","21.2","91","30.39","196","0","0","0.00","0.00"
"06:09:59","23.4","21.2","91","30.39","196","0","0","0.00","0.00"
"06:14:57","23.3","21.1","91","30.39","196","0","0","0.00","0.00"
"06:19:56","23.3","21.1","91","30.39","196","0","0","0.00","0.00"
"06:24:58","23.3","21.1","91","30.39","196","0","0","0.00","0.00"
"06:29:56","23.3","21.1","91","30.39","196","0","0","0.00","0.00"
"06:34:58","23.3","21.2","91.3","30.39","196","0","0","0.00","0.00"
"06:39:56","23.3","21.1","91","30.39","196","0","0","0.00","0.00"
"06:44:58","23.1","20.9","91","30.40","196","0","0","0.00","0.00"
"06:49:56","23.1","20.9","91","30.40","196","0","0","0.00","0.00"
"06:54:58","23.1","21","91.3","30.40","196","0","0","0.00","0.00"
"06:59:56","23.1","20.9","91","30.40","196","0","0","0.00","0.00"
"07:04:58","23.2","21.2","92","30.40","196","0","0","0.00","0.00"
"07:09:56","23.4","21.4","92","30.40","196","0","0","0.00","0.00"
"07:14:59","23.6","21.6","92","30.41","196","0","0","0.00","0.00"
"07:19:57","23.6","21.5","91.8","30.41","196","0","0","0.00","0.00"
"07:24:59","23.5","21.3","91.2","30.41","196","0","0","0.00","0.00"
"07:29:58","23.4","21.2","91","30.42","196","0","0","0.00","0.00"
"07:34:56","23.3","21.1","91","30.42","196","0","0","0.00","0.00"
"07:39:59","23.3","21.1","91","30.42","196","0","0","0.00","0.00"
"07:44:59","23.3","21.2","91.3","30.42","196","0","0","0.00","0.00"
"07:49:56","23.4","21.4","92","30.42","196","0","0","0.00","0.00"
"07:54:58","23.6","21.6","92","30.42","196","0","0","0.00","0.00"
"07:59:52","23.8","21.8","92","30.43","196","0","0","0.00","0.00"
"08:04:57","24.1","22.3","92.6","30.43","196","0","0","0.00","0.00"
"08:09:59","24.6","22.8","92.7","30.43","196","0","0","0.00","0.00"
"08:14:57","25.2","23.5","93","30.44","196","0","0","0.00","0.00"
"08:19:58","25.8","24","92.7","30.44","196","0.3","2.3","0.00","0.00"
"08:24:55","26.6","24.7","92","30.44","196","0.3","2.3","0.00","0.00"
"08:29:57","27.7","25.3","90.9","30.45","196","0.5","2.3","0.00","0.00"
"08:34:58","28.3","25.3","88.5","30.45","196","0.8","2.3","0.00","0.00"
"08:39:56","29","25.9","88","30.45","196","0","0","0.00","0.00"
"08:44:58","30.2","26.4","85.7","30.45","196","0","0","0.00","0.00"
"08:49:59","31.5","27.1","83.6","30.45","196","0","0","0.00","0.00"
"08:54:57","32.3","27.1","80.9","30.45","196","0","0","0.00","0.00"
"08:59:58","32.8","27.1","79.5","30.46","196","0","0","0.00","0.00"
"09:04:59","33.2","27.1","78","30.46","196","0","0","0.00","0.00"
"09:09:58","33.6","26.8","76","30.46","196","0.1","2","0.00","0.00"
"09:14:57","34.6","27.3","74.6","30.47","196","1.1","2.3","0.00","0.00"
"09:19:58","35.6","27.8","73.2","30.47","196","1.3","2.3","0.00","0.00"
"09:24:59","36.4","27.9","71","30.47","196","1.7","4","0.00","0.00"
"09:29:56","37.5","28.6","70","30.47","194","1.3","3.5","0.00","0.00"
"09:34:57","38.4","29.1","68.9","30.47","194","0.5","2.3","0.00","0.00"
"09:39:59","39.4","29.6","67.5","30.47","194","0.3","2.3","0.00","0.00"
"09:44:56","40.3","30","66.5","30.47","194","0.4","2.3","0.00","0.00"
"09:49:58","41.3","30.3","64.7","30.47","194","0.5","2.3","0.00","0.00"
"09:54:59","42.1","30.8","63.9","30.47","194","0.5","2.3","0.00","0.00"
"09:59:56","43","30.8","61.8","30.48","194","1.3","3.5","0.00","0.00"
"10:04:57","44","30.9","59.6","30.48","192","1.3","3.5","0.00","0.00"
"10:09:59","44.9","31.7","59.6","30.48","192","1.1","3.5","0.00","0.00"
"10:14:57","45.8","32.3","59","30.48","180","1.9","5","0.00","0.00"
"10:19:59","46.5","32.3","57.5","30.48","186","2.8","6","0.00","0.00"
"10:24:56","46.9","32.5","57","30.48","197","2.9","6","0.00","0.00"
"10:29:58","47.5","32.7","56.2","30.48","177","2.4","5.8","0.00","0.00"
"10:34:56","48.1","33","55.6","30.48","178","2.5","5","0.00","0.00"
"10:39:57","49","33.5","54.9","30.48","181","2.3","5","0.00","0.00"
"10:44:58","50","34.2","54.5","30.48","182","2","4.6","0.00","0.00"
"10:49:56","50.9","34.3","52.9","30.47","184","2.3","5","0.00","0.00"
"10:54:57","51.7","34.7","52.3","30.47","178","3.4","10.4","0.00","0.00"
"10:59:59","52.3","33.4","48.5","30.47","180","3.4","9.2","0.00","0.00"
"11:04:56","52.8","33.2","47.3","30.47","168","4.2","10.4","0.00","0.00"
"11:09:58","53.3","32.6","45.2","30.47","162","4.4","10.4","0.00","0.00"
"11:14:59","53.8","33.4","45.9","30.47","192","5.2","11.5","0.00","0.00"
"11:19:56","53.9","33.1","45","30.47","192","3.6","10.4","0.00","0.00"
"11:24:58","54.4","34","46.1","30.47","191","4","7","0.00","0.00"
"11:29:59","54.7","33.3","44.1","30.47","180","4.2","11.5","0.00","0.00"
"11:34:56","54.8","33.4","44.2","30.47","192","4.1","8.1","0.00","0.00"
"11:39:58","55.1","34.6","45.9","30.47","209","4.4","10","0.00","0.00"
"11:44:59","55.3","34","44.4","30.47","185","4.8","10.4","0.00","0.00"
"11:49:56","55.5","33.9","44","30.47","194","5","10.4","0.00","0.00"
"11:54:58","55.7","35.2","45.8","30.47","195","4.2","9.2","0.00","0.00"
"11:59:59","56.1","34.8","44.6","30.47","179","3.9","9.2","0.00","0.00"
"12:04:56","56.3","34.8","44.3","30.47","190","5.1","12","0.00","0.00"
"12:09:58","56.3","33.9","42.6","30.47","192","4.7","11.5","0.00","0.00"
"12:14:59","56.5","35.2","44.7","30.47","206","5.1","10.4","0.00","0.00"
"12:19:57","56.8","35.4","44.5","30.46","191","3.4","9.2","0.00","0.00"
"12:24:58","57.1","36.4","45.7","30.46","198","5.2","12","0.00","0.00"
"12:29:56","57.3","36","44.9","30.46","180","4.3","10.4","0.00","0.00"
"12:34:57","57.3","35.4","43.6","30.46","177","3.9","10.4","0.00","0.00"
"12:39:58","57.5","36.5","45.3","30.46","207","3.7","10.4","0.00","0.00"
"12:44:59","57.9","35.7","43.4","30.46","182","4.2","11.5","0.00","0.00"
"12:49:56","58.3","36.8","44.7","30.45","186","4.2","13","0.00","0.00"
"12:54:58","58.3","35.9","43","30.45","176","4.4","12.7","0.00","0.00"
"12:59:59","58.5","36.1","43.1","30.45","205","4","9.2","0.00","0.00"
"13:04:56","58.7","36.5","43.5","30.45","163","4","8.1","0.00","0.00"
"13:09:58","58.9","36.6","43.3","30.45","163","3.1","10","0.00","0.00"
"13:14:56","59.2","36.1","42","30.45","182","5","11","0.00","0.00"
"13:19:58","59.1","36.6","43","30.44","209","4.3","11.5","0.00","0.00"
"13:24:59","59.3","36.9","43.2","30.44","203","3.9","9","0.00","0.00"
"13:29:56","59.6","37.9","44.4","30.44","218","4.5","9.2","0.00","0.00"
"13:34:58","59.9","37","42.4","30.44","152","3.4","11.5","0.00","0.00"
"13:39:56","60.2","37.8","43.3","30.44","162","3.5","10","0.00","0.00"
"13:44:57","60.5","36.8","41.3","30.44","183","4.5","10.4","0.00","0.00"
"13:49:58","60.4","37","41.8","30.42","175","4.8","10.4","0.00","0.00"
"13:54:59","60.3","37.2","42.2","30.42","200","5.1","11","0.00","0.00"
"13:59:57","60.4","37.6","42.7","30.42","202","4.3","11.5","0.00","0.00"
"14:04:58","60.5","37.1","41.8","30.42","175","4.1","11.5","0.00","0.00"
"14:09:56","60.4","36.7","41.2","30.42","179","5","11","0.00","0.00"
"14:14:56","60.4","37.5","42.5","30.42","185","4.8","11.5","0.00","0.00"
"14:19:57","60.3","36.2","40.6","30.41","202","5.9","13","0.00","0.00"
"14:24:58","60.6","37.2","41.9","30.41","157","4","11.5","0.00","0.00"
"14:29:56","61","36.6","40.2","30.41","173","3.8","11.5","0.00","0.00"
"14:34:57","61.2","36.6","39.9","30.40","128","3.6","7","0.00","0.00"
"14:39:59","61.4","37.7","41.4","30.40","187","4.6","10.4","0.00","0.00"
"14:44:56","61.7","36.5","39.2","30.40","185","4.6","10.4","0.00","0.00"
"14:49:57","61.8","37.4","40.4","30.39","209","5.1","10.4","0.00","0.00"
"14:54:59","62","36.8","39.2","30.39","195","5.6","11.5","0.00","0.00"
"14:59:56","62","37.5","40.2","30.39","223","6.6","11.5","0.00","0.00"
"15:04:57","62","37.8","40.6","30.39","210","3.4","10.4","0.00","0.00"
"15:09:58","62.6","38.1","40.2","30.39","177","4","11","0.00","0.00"
"15:14:56","62.9","36.8","37.9","30.39","183","5","12","0.00","0.00"
"15:19:57","62.7","35.6","36.4","30.38","151","4.5","13","0.00","0.00"
"15:24:59","62.3","36.5","38.1","30.38","183","4.8","12.7","0.00","0.00"
"15:29:56","62.6","37","38.6","30.38","183","6.3","15","0.00","0.00"
"15:34:57","62.7","36.4","37.6","30.37","167","4.6","11.5","0.00","0.00"
"15:39:59","62.9","36.4","37.3","30.37","217","6.1","12","0.00","0.00"
"15:44:56","63.1","36.7","37.4","30.37","199","5.2","11","0.00","0.00"
"15:49:58","63.2","37.4","38.3","30.37","206","5.2","11.5","0.00","0.00"
"15:54:59","63.4","36.4","36.8","30.37","195","5.6","13","0.00","0.00"
"15:59:56","63.2","36.2","36.6","30.37","213","6.6","11.5","0.00","0.00"
"16:04:57","63.2","36.9","37.6","30.37","210","6.4","13","0.00","0.00"
"16:09:59","63.3","36.8","37.4","30.37","203","5","11.5","0.00","0.00"
"16:14:57","63.4","36.6","37","30.37","222","5.6","9.2","0.00","0.00"
"16:19:59","63.5","36.1","36.2","30.37","190","5.6","12","0.00","0.00"
"16:24:56","63.4","36.4","36.5","30.37","203","4.4","11.5","0.00","0.00"
"16:29:58","63.7","37.1","37.3","30.37","179","4.2","10.4","0.00","0.00"
"16:34:59","63.7","36.6","36.6","30.36","206","4.9","10.4","0.00","0.00"
"16:39:57","63.9","36.4","36","30.36","164","4","10","0.00","0.00"
"16:44:58","64","36.3","35.7","30.36","156","4","10.4","0.00","0.00"
"16:49:59","63.9","36.1","35.6","30.36","201","4.1","11.5","0.00","0.00"
"16:54:57","63.8","35.7","35.1","30.36","170","3.4","9","0.00","0.00"
"16:59:58","63.7","35.7","35.2","30.36","191","5.5","11.5","0.00","0.00"
"17:04:59","63.4","36.3","36.5","30.36","197","5.3","11.5","0.00","0.00"
"17:09:56","63.3","35.4","35.4","30.36","182","3.6","7","0.00","0.00"
"17:14:58","63.5","35.9","35.8","30.36","166","2.5","6","0.00","0.00"
"17:19:51","63.8","35.8","35.2","30.35","206","5.1","12","0.00","0.00"
"17:24:57","63.6","35.8","35.6","30.35","193","5.2","11.5","0.00","0.00"
"17:29:59","63.4","35.9","35.9","30.35","200","4.2","10.4","0.00","0.00"
"17:34:56","63.3","35.9","36","30.35","191","3.3","9","0.00","0.00"
"17:39:58","63.2","35","34.9","30.35","157","4.5","12","0.00","0.00"
"17:44:56","63","34.7","34.7","30.35","175","4.5","14","0.00","0.00"
"17:49:57","63","34.6","34.6","30.35","186","3.9","10","0.00","0.00"
"17:54:58","62.8","34.9","35.3","30.35","186","4.1","9.2","0.00","0.00"
"17:59:56","62.5","35.1","35.8","30.35","189","3.9","10","0.00","0.00"
"18:04:57","62.4","35.1","36","30.35","184","1.6","10.4","0.00","0.00"
"18:09:59","62.3","34.7","35.6","30.35","162","2.6","9","0.00","0.00"
"18:14:56","62","34.6","35.8","30.35","166","3.6","9.2","0.00","0.00"
"18:19:57","61.6","34.4","36.1","30.35","183","4.6","11.5","0.00","0.00"
"18:24:59","61.3","34.2","36.2","30.35","190","3.5","9.2","0.00","0.00"
"18:29:56","61","35","37.6","30.35","186","2.8","6","0.00","0.00"
"18:34:58","60.6","34.4","37.3","30.35","170","3","5","0.00","0.00"
"18:39:56","60.4","34.5","37.8","30.35","172","2.2","5","0.00","0.00"
"18:44:57","60.1","34.1","37.5","30.36","175","2.5","5","0.00","0.00"
"18:49:59","59.9","34.1","37.9","30.36","178","2","5","0.00","0.00"
"18:54:57","59.6","33.8","37.8","30.36","159","1.7","3.5","0.00","0.00"
"18:59:59","59.4","33.8","38","30.36","160","1.6","4","0.00","0.00"
"19:04:56","59.1","33.8","38.5","30.36","159","1.6","4","0.00","0.00"
"19:09:58","58.8","33.4","38.2","30.36","170","1.6","5","0.00","0.00"
"19:14:57","58.6","33.7","39","30.36","158","1.6","4.6","0.00","0.00"
"19:19:59","58.4","33.5","39","30.36","138","1.6","4","0.00","0.00"
"19:24:57","58.3","33.4","39","30.36","119","1.2","4","0.00","0.00"
"19:29:59","58.2","33.3","39","30.36","120","0.8","3.5","0.00","0.00"
"19:34:57","58","33.2","39","30.36","122","1","3.5","0.00","0.00"
"19:39:59","57.8","33.2","39.3","30.36","146","1.7","4","0.00","0.00"
"19:44:57","57.6","33.3","39.8","30.36","158","1.3","3.5","0.00","0.00"
"19:49:59","57.4","33.5","40.3","30.36","158","0.9","3.5","0.00","0.00"
"19:54:57","57.1","33.2","40.2","30.36","153","1.1","3.5","0.00","0.00"
"19:59:59","56.8","33.3","41","30.36","149","1.1","3.5","0.00","0.00"
"20:04:52","56.5","33.6","41.8","30.36","149","0.7","3.5","0.00","0.00"
"20:09:59","56.2","33.2","41.7","30.36","149","1.5","4","0.00","0.00"
"20:14:57","56.1","33.4","42.2","30.36","148","0.8","3.5","0.00","0.00"
"20:19:58","55.9","33.5","42.7","30.36","129","1.7","4","0.00","0.00"
"20:24:56","55.5","33.8","43.8","30.36","107","2.2","5","0.00","0.00"
"20:29:58","55.2","34","44.7","30.37","108","2.1","4","0.00","0.00"
"20:34:56","54.8","34.1","45.5","30.37","111","0.5","3.5","0.00","0.00"
"20:39:59","54.4","34.1","46.2","30.37","111","1","3.5","0.00","0.00"
"20:44:56","54.1","34.3","47","30.38","111","1.1","3.5","0.00","0.00"
"20:49:58","53.8","34.4","47.6","30.38","110","1.1","3.5","0.00","0.00"
"20:54:56","53.5","34.3","48","30.38","113","1.2","4","0.00","0.00"
"20:59:58","53.3","34.2","48.3","30.38","114","1.3","3.5","0.00","0.00"
"21:04:59","53","34.4","49.1","30.38","114","0.6","3.5","0.00","0.00"
